This is the latest recevied weather packets stored in our database for station/object YO8PIC-13. If no packets are shown the sender has not sent any weather packets the latest 10 day(s).
| Time | Temp. | Humidity | Pressure | Rain* | Wind** | Luminosity | Snow |
|---|---|---|---|---|---|---|---|
| 1787771532 | 20.56° C | 79% | 1023 hPa | - | - | - | - |
| 1787770932 | 20.56° C | 79% | 1022.8 hPa | - | - | - | - |
| 1787770333 | 20.56° C | 79% | 1022.9 hPa | - | - | - | - |
| 1787769733 | 20° C | 79% | 1023 hPa | - | - | - | - |
| 1787769132 | 20.56° C | 80% | 1023.1 hPa | - | - | - | - |
| 1787768532 | 20.56° C | 78% | 1022.8 hPa | - | - | - | - |
| 1787767933 | 20.56° C | 78% | 1023 hPa | - | - | - | - |
| 1787767333 | 20.56° C | 78% | 1023 hPa | - | - | - | - |
| 1787766732 | 20.56° C | 77% | 1022.9 hPa | - | - | - | - |
| 1787766132 | 21.11° C | 74% | 1022.8 hPa | - | - | - | - |
| 1787765532 | 21.11° C | 76% | 1022.7 hPa | - | - | - | - |
| 1787764933 | 21.11° C | 75% | 1022.7 hPa | - | - | - | - |
| 1787764333 | 20.56° C | 78% | 1022.5 hPa | - | - | - | - |
| 1787763732 | 20.56° C | 78% | 1022.4 hPa | - | - | - | - |
| 1787763133 | 21.11° C | 77% | 1022.5 hPa | - | - | - | - |
| 1787762533 | 21.11° C | 75% | 1022.4 hPa | - | - | - | - |
| 1787761933 | 21.67° C | 73% | 1022.4 hPa | - | - | - | - |
| 1787761333 | 21.67° C | 72% | 1022.1 hPa | - | - | - | - |
| 1787760732 | 22.22° C | 71% | 1021.9 hPa | - | - | - | - |
| 1787760132 | 22.22° C | 72% | 1021.7 hPa | - | - | - | - |
| 1787759532 | 22.22° C | 71% | 1021.5 hPa | - | - | - | - |
| 1787758933 | 22.22° C | 72% | 1021.5 hPa | - | - | - | - |
| 1787758333 | 22.22° C | 72% | 1021.4 hPa | - | - | - | - |
| 1787757732 | 22.78° C | 73% | 1021.5 hPa | - | - | - | - |
| 1787757132 | 22.78° C | 74% | 1021.5 hPa | - | - | - | - |
* Rain since midnight (hover to see other rain measurements)
** Current wind speed in m/s (hover to see current wind gust speed)